Theta_e
306 306 305 306 308 309 310 309 310 309 309 308 308 307 307 308 307 306 304 302 300 299 298 298 298 298 299 299 299 300 300 300 300 300 300 300 299 299 298 297 296 295
307 307 307 307 307 309 310 310 310 310 309 308 308 308 307 307 307 306 305 303 301 300 299 298 298 298 299 299 299 299 299 299 299 299 300 299 299 299 298 297 296 295
309 309 308 308 307 309 310 310 310 310 309 308 308 309 308 307 307 307 306 303 301 300 299 298 298 298 298 299 299 299 299 299 299 299 299 299 299 298 298 297 296 295
312 311 310 309 308 308 309 310 311 310 309 308 307 308 309 308 306 307 306 304 302 301 299 298 298 298 298 299 299 299 299 299 299 299 299 299 299 298 298 297 296 295
314 313 312 311 309 308 309 310 311 311 309 307 307 308 309 308 307 307 307 305 303 301 300 299 298 298 299 299 299 299 299 299 298 299 299 299 299 298 298 297 296 295
314 314 312 312 311 310 309 310 311 311 309 307 306 307 308 308 308 308 307 306 304 302 300 299 299 298 299 299 299 299 299 298 298 298 298 299 298 298 298 297 296 295
315 313 312 312 312 312 310 310 311 311 309 307 307 307 307 308 308 308 307 306 305 303 301 300 299 299 299 299 299 299 298 298 298 298 298 298 298 298 298 297 296 296
315 314 312 312 314 313 312 311 311 311 309 309 308 306 306 307 308 308 307 306 306 304 302 300 299 299 299 299 299 298 298 298 298 298 298 298 298 298 297 297 297 296
317 316 314 314 314 314 314 313 312 311 310 310 309 306 305 306 308 307 306 307 307 305 302 300 300 299 299 299 299 298 298 298 298 298 298 298 298 298 297 297 297 297
319 318 317 315 315 315 315 314 313 312 311 311 310 309 306 305 306 307 307 307 307 306 303 301 300 300 299 299 299 298 298 298 298 298 298 298 297 297 297 297 297 297
320 319 319 318 317 315 315 315 314 313 313 312 312 311 307 304 305 306 307 307 307 306 303 301 300 300 299 299 299 298 298 298 298 298 298 298 297 297 297 297 297 297
320 320 320 320 318 316 315 316 315 314 314 313 313 312 308 304 304 306 306 306 306 306 303 301 300 300 299 299 299 298 298 298 298 298 298 297 297 297 297 297 297 297
320 320 320 320 319 316 314 314 315 315 314 313 313 313 309 305 304 306 305 305 306 306 304 301 300 300 300 299 299 298 298 298 298 298 298 297 297 297 297 297 297 297
320 320 320 320 319 317 313 312 313 314 314 314 314 313 310 307 306 305 304 304 306 306 304 302 300 300 300 299 299 298 298 298 298 298 297 297 297 297 297 297 297 297
320 320 320 321 320 319 316 313 312 313 314 314 314 313 311 309 307 304 304 305 307 307 305 303 301 300 300 299 299 298 298 298 298 298 297 297 297 297 297 297 297 297
320 320 321 321 321 320 319 314 312 312 313 313 314 313 312 309 306 305 305 306 307 307 306 304 301 300 299 299 299 298 298 298 298 298 297 297 297 297 297 297 297 297
320 320 321 321 321 321 319 315 313 313 313 313 314 314 312 310 307 306 305 306 307 308 307 305 302 300 299 299 299 299 299 298 298 298 297 297 297 297 297 297 297 297
319 319 320 320 320 320 318 315 313 312 312 313 314 314 313 311 309 307 306 306 306 307 307 306 303 300 299 299 299 299 299 298 298 298 298 297 297 297 297 297 297 297
318 318 318 319 319 318 317 315 313 313 313 313 314 314 313 311 310 309 307 307 306 307 307 305 303 300 299 299 299 299 299 298 298 298 298 298 297 297 297 297 297 297
316 316 316 317 317 317 316 315 314 314 314 314 314 314 313 311 311 310 309 307 307 308 308 305 303 301 299 298 298 299 299 298 298 298 298 298 298 297 297 297 297 297
315 315 315 315 315 316 316 316 316 316 315 315 315 315 313 312 312 311 310 308 308 309 308 307 305 302 299 298 298 298 298 298 298 298 298 298 298 298 298 298 297 297
314 314 314 315 316 317 318 318 318 317 317 316 315 315 313 312 312 312 311 309 309 308 308 308 306 303 300 298 298 298 298 298 298 298 298 298 298 298 298 298 297 297
314 315 316 317 318 319 319 319 319 318 318 317 316 315 314 313 313 313 312 311 310 309 309 308 306 303 301 299 298 297 297 297 298 298 298 298 298 298 298 298 298 297
316 317 317 318 319 319 320 320 319 319 318 317 316 315 314 314 313 313 312 311 311 310 309 308 306 303 301 300 298 297 297 297 297 297 298 298 298 298 298 298 298 298
317 318 318 319 319 319 319 319 318 319 318 317 316 315 314 314 313 312 311 311 312 311 309 308 306 303 301 300 298 297 296 296 296 297 297 298 298 298 298 298 298 298
317 318 318 318 319 319 319 319 318 318 318 317 316 315 315 314 314 313 313 313 312 311 309 308 306 304 302 301 299 298 297 296 296 296 297 297 297 297 298 298 298 298
Wind_Speed
22 21 19 19 19 18 17 17 16 13 10 9 7 4 2 4 6 7 8 7 7 6 6 6 7 7 6 7 7 8 9 11 12 13 13 14 15 15 15 15 14 14
23 21 20 20 20 20 20 19 17 15 13 11 8 6 3 2 4 6 7 7 7 7 6 6 7 7 7 6 6 7 9 10 11 12 13 14 15 16 15 15 14 14
25 23 22 21 20 21 21 20 18 17 16 14 10 7 5 3 3 5 7 7 7 7 6 7 7 7 7 6 6 7 8 9 10 11 12 13 14 15 15 15 15 14
26 24 22 20 21 22 21 20 20 18 17 15 11 8 7 5 3 4 6 6 7 7 7 7 7 7 7 6 5 6 7 8 9 10 11 13 14 15 15 15 15 14
24 24 23 22 23 23 22 22 21 19 18 16 13 10 8 7 4 4 5 6 7 8 8 8 8 8 8 6 5 5 6 7 8 9 10 12 13 14 15 15 15 15
24 25 25 24 23 23 23 23 22 20 19 17 15 13 10 8 6 5 5 6 7 8 8 9 8 8 8 7 5 5 6 6 7 8 9 11 12 13 14 15 15 15
25 25 25 24 24 24 25 24 23 22 20 19 17 15 13 9 7 6 5 6 7 8 9 9 9 8 8 7 5 5 5 6 7 8 9 10 11 12 13 14 15 16
24 24 23 23 25 26 26 25 24 23 22 21 19 17 14 11 9 8 5 6 7 8 10 10 9 9 9 7 6 5 6 5 6 7 8 9 10 11 12 13 15 16
23 23 22 23 25 27 26 26 25 24 23 22 21 19 17 13 11 10 6 6 8 9 10 11 10 9 9 8 6 6 6 6 6 6 7 8 9 11 12 13 14 15
23 23 23 24 25 25 26 26 26 25 24 23 22 21 19 16 14 12 8 7 9 10 11 11 10 10 10 8 7 7 7 7 6 6 7 7 8 10 11 13 14 15
25 24 24 24 25 24 24 25 26 26 25 25 24 23 21 19 17 14 11 9 9 10 11 12 11 11 11 9 8 8 7 7 7 7 7 7 8 9 10 12 13 14
27 26 25 25 25 25 25 25 25 27 27 27 25 24 23 21 18 16 13 10 10 11 12 12 12 12 12 11 9 8 8 8 8 8 7 7 7 8 9 11 12 14
29 28 27 26 27 27 27 26 25 26 27 27 26 24 24 22 18 16 15 12 11 12 13 13 13 13 13 12 11 9 9 8 9 9 8 7 7 8 9 10 12 13
29 28 27 27 28 28 28 28 26 26 27 27 26 26 26 22 18 17 16 14 12 13 14 14 14 14 14 13 12 11 10 9 10 10 8 8 8 8 8 10 11 12
28 27 26 27 28 28 29 28 27 26 27 27 27 27 26 22 19 19 18 14 13 14 16 16 15 15 14 14 14 12 11 11 11 11 10 9 9 8 8 9 10 12
28 27 27 28 29 29 29 29 26 25 26 27 27 27 26 23 22 20 18 15 13 15 17 17 16 15 15 15 15 14 12 12 12 12 11 11 10 10 9 9 10 12
28 28 29 30 30 29 29 29 26 25 25 26 27 27 26 26 24 21 19 16 15 16 18 18 17 16 16 17 17 15 14 14 13 13 13 12 11 11 11 11 11 12
26 28 29 29 30 29 29 28 26 25 25 26 27 27 28 28 25 22 20 19 18 18 18 19 18 17 17 18 18 17 16 15 15 15 14 14 13 12 12 12 12 13
26 27 28 28 29 29 28 27 25 25 25 27 27 28 29 29 26 23 21 20 19 18 19 19 18 17 18 19 19 18 18 17 17 16 16 16 15 15 14 14 14 14
26 27 28 28 28 28 27 26 25 23 24 26 27 28 30 29 27 25 23 22 19 18 19 20 20 19 19 19 20 20 20 19 18 18 18 18 17 17 16 16 16 16
27 27 28 28 28 27 26 25 24 23 24 25 27 29 30 28 27 26 26 23 20 19 20 21 21 21 20 20 20 21 21 21 20 20 20 20 19 19 18 18 18 18
27 27 27 27 27 26 25 24 23 23 23 25 27 29 28 27 26 27 27 25 23 21 21 22 23 22 21 20 21 22 23 23 23 22 22 22 21 21 20 20 20 20
25 25 25 25 25 25 24 23 23 22 23 25 26 27 26 25 25 26 26 25 24 23 22 23 24 23 21 21 21 23 24 25 25 24 24 24 23 22 22 22 22 21
23 23 23 24 25 24 23 23 22 22 23 25 26 27 27 26 25 27 27 26 25 24 24 25 25 23 22 22 22 23 25 26 26 26 27 26 25 24 23 23 23 22
22 23 24 24 24 24 23 24 24 24 25 26 27 27 27 26 27 29 28 26 25 25 26 27 27 25 24 24 23 24 26 27 27 28 28 28 27 26 25 24 24 23
23 24 25 25 25 24 24 25 25 26 26 26 26 27 27 28 29 29 28 27 28 28 29 30 28 26 25 25 25 25 26 27 28 29 29 29 28 27 27 26 25 24
Wind_Direction
195 196 198 204 205 206 209 213 217 222 231 247 264 277 348 30 13 4 3 357 345 333 325 312 304 311 322 334 351 4 1 358 359 1 1 1 3 4 2 0 360 1
197 198 201 205 208 209 211 215 218 222 230 239 254 272 293 6 9 359 358 356 345 335 324 306 300 307 317 329 350 2 360 356 356 358 0 2 4 4 3 0 359 1
199 200 202 206 210 213 215 217 219 223 230 236 245 267 284 299 347 354 353 355 346 333 320 302 297 303 312 325 347 359 357 353 354 357 359 2 5 4 3 1 359 2
203 201 201 206 213 217 219 220 221 225 231 237 242 255 274 283 307 342 348 352 345 333 315 298 295 300 307 320 341 352 351 350 352 355 358 2 4 4 4 2 1 4
206 203 203 207 213 218 220 221 223 227 232 237 239 245 260 272 288 326 340 346 343 332 311 294 292 298 303 315 332 340 343 345 349 353 357 2 4 4 3 2 3 6
206 206 207 209 214 219 222 224 225 227 232 235 235 239 249 261 282 309 327 336 339 328 307 292 290 294 299 308 319 326 332 338 344 350 356 0 3 3 2 2 5 7
207 207 210 214 217 221 225 227 227 227 231 234 233 236 242 253 273 292 307 323 330 322 304 291 287 289 293 299 305 311 318 328 337 345 353 358 1 2 2 3 6 7
208 209 211 216 219 223 226 229 230 229 230 233 233 234 238 246 262 274 290 312 320 315 301 290 286 286 287 289 293 298 304 316 329 339 348 354 358 1 1 2 6 7
211 212 213 217 221 224 227 230 233 232 231 232 233 234 234 239 254 266 277 301 311 308 297 288 284 283 283 283 284 288 294 306 319 331 341 349 355 357 360 2 6 6
220 219 218 221 224 226 228 232 234 235 235 234 235 235 234 234 246 259 268 285 299 301 293 286 282 279 279 277 276 280 287 297 309 322 332 343 350 353 358 2 4 5
229 229 228 229 231 230 231 234 235 236 237 237 237 236 234 233 241 254 265 275 287 292 287 282 280 277 275 272 269 272 280 290 300 310 321 335 344 349 356 1 3 3
237 238 238 239 240 238 236 236 237 238 239 240 241 238 235 235 239 251 263 269 276 283 282 279 277 274 273 270 266 266 273 283 291 299 311 323 334 344 352 358 1 0
241 243 245 247 247 245 243 241 240 241 241 243 243 239 235 235 237 248 258 263 269 278 278 275 274 273 271 268 263 263 269 277 284 291 301 311 323 337 346 353 357 356
242 245 247 250 252 251 251 248 245 245 245 243 242 239 235 232 234 244 252 258 267 275 274 272 273 273 271 267 263 261 265 273 279 284 292 302 311 326 338 345 350 351
244 247 249 252 255 256 255 253 248 246 246 243 240 239 236 230 229 238 247 254 265 273 273 272 273 273 270 266 262 260 263 269 273 278 284 292 301 313 327 335 341 344
247 249 249 251 254 256 257 256 251 247 245 242 239 239 236 229 228 234 242 249 261 270 272 272 273 272 267 263 262 261 262 266 269 272 278 284 292 303 314 325 331 336
246 246 246 247 250 252 253 254 252 246 242 240 239 239 236 230 228 232 239 246 256 266 271 272 272 269 264 261 262 263 263 265 267 268 273 278 285 293 304 314 321 326
242 242 241 242 244 247 250 252 249 243 239 237 236 236 235 232 229 232 238 244 252 261 269 272 270 266 262 261 262 264 264 263 264 267 270 274 280 286 294 303 310 316
239 239 239 239 241 244 248 249 247 242 237 235 235 236 237 235 232 234 239 245 253 263 270 271 269 265 261 261 263 264 264 264 264 267 269 271 276 281 287 294 300 306
239 239 239 239 241 243 245 246 245 242 239 236 235 236 237 236 234 235 239 245 255 266 270 270 269 265 261 261 263 263 264 265 265 266 268 271 274 277 281 287 292 298
241 240 239 239 240 242 244 244 243 241 238 235 234 234 236 237 237 238 241 246 253 261 267 269 268 265 262 261 262 263 263 264 266 266 268 270 273 276 278 282 286 291
240 239 237 237 238 240 243 243 240 238 236 235 235 236 238 239 239 241 246 249 251 255 262 265 264 263 262 262 262 261 261 263 266 268 269 270 272 275 277 278 281 286
236 236 234 233 235 237 239 240 239 237 236 236 237 237 238 240 243 247 250 251 252 256 261 263 263 262 261 261 262 261 260 262 266 269 271 271 272 272 274 276 278 282
232 232 231 231 234 234 236 239 240 239 239 240 240 239 239 242 247 250 250 249 252 257 260 261 262 262 260 260 260 259 260 262 264 268 270 272 273 273 273 275 277 279
229 229 228 229 231 232 233 237 240 242 245 245 244 243 242 244 248 250 250 250 252 254 256 259 261 259 258 258 258 258 259 261 262 265 268 272 274 275 276 276 277 278
231 231 230 230 231 232 233 237 238 242 246 248 247 246 245 247 249 251 253 254 254 255 256 258 260 258 256 257 258 257 258 260 260 262 267 272 275 276 277 277 277 278